Location: Newark
(48.1500°N, 13.1167°E)
Time: 19:14:31
(UTC+00:00)

Tiangong - Visible Passes

Search period start: 25 September 2021 00:00
Search period end: 05 October 2021 00:00
Orbit: 382 x 385 km, 41.5° (Epoch: 25 September)

Date Brightness Start Highest point End Pass type
(mag) Time Alt. Az. Time Alt. Az. Time Alt. Az.
28 Sep 3.6 03:38:25 10° S 03:40:01 14° SSE 03:41:43 10° SE visible
29 Sep 3.0 04:13:58 10° SW 04:16:27 21° S 04:18:58 10° ESE visible
30 Sep 3.1 03:16:39 18° SSE 03:16:43 18° SSE 03:18:58 10° ESE visible
01 Oct 2.7 03:51:48 17° SW 03:53:14 24° S 03:55:51 10° ESE visible
02 Oct 3.5 02:54:46 17° SE 02:54:46 17° SE 02:55:58 10° ESE visible
02 Oct 2.8 04:27:13 10° WSW 04:29:45 22° S 04:32:17 10° SE visible
03 Oct 2.6 03:29:56 24° S 03:29:58 24° S 03:32:36 10° SE visible
04 Oct 2.9 04:05:07 15° SW 04:06:28 19° SSW 04:08:47 10° SE visible
